Year,Month,Day,Hour,Minute,Value (Times are PST for temperature in C)
2009,05,23,00,00,14.30
2009,05,23,00,01,14.30
2009,05,23,00,02,14.30
2009,05,23,00,03,14.30
2009,05,23,00,04,14.30
2009,05,23,00,05,14.30
2009,05,23,00,06,14.20
2009,05,23,00,07,14.20
2009,05,23,00,08,14.20
2009,05,23,00,09,14.20
2009,05,23,00,10,14.20
2009,05,23,00,11,14.20
2009,05,23,00,12,14.20
2009,05,23,00,13,14.20
2009,05,23,00,14,14.20
2009,05,23,00,15,14.20
2009,05,23,00,16,14.20
2009,05,23,00,17,14.20
2009,05,23,00,18,14.10
2009,05,23,00,19,14.10
2009,05,23,00,20,14.10
2009,05,23,00,21,14.10
2009,05,23,00,22,14.10
2009,05,23,00,23,14.10
2009,05,23,00,24,14.10
2009,05,23,00,25,14.10
2009,05,23,00,26,14.00
2009,05,23,00,27,14.00
2009,05,23,00,28,14.00
2009,05,23,00,29,14.00
2009,05,23,00,30,14.00
2009,05,23,00,31,13.90
2009,05,23,00,32,13.90
2009,05,23,00,33,13.90
2009,05,23,00,34,13.90
2009,05,23,00,35,13.90
2009,05,23,00,36,13.80
2009,05,23,00,37,13.80
2009,05,23,00,38,13.80
2009,05,23,00,39,13.80
2009,05,23,00,40,13.80
2009,05,23,00,41,13.80
2009,05,23,00,42,13.80
2009,05,23,00,43,13.70
2009,05,23,00,44,13.70
2009,05,23,00,45,13.70
2009,05,23,00,46,13.70
2009,05,23,00,47,13.60
2009,05,23,00,48,13.60
2009,05,23,00,49,13.60
2009,05,23,00,50,13.60
2009,05,23,00,51,13.50
2009,05,23,00,52,13.50
2009,05,23,00,53,13.50
2009,05,23,00,54,13.50
2009,05,23,00,55,13.50
2009,05,23,00,56,13.50
2009,05,23,00,57,13.50
2009,05,23,00,58,13.50
2009,05,23,00,59,13.50
2009,05,23,01,00,13.50
2009,05,23,01,01,13.40
2009,05,23,01,02,13.40
2009,05,23,01,03,13.40
2009,05,23,01,04,13.40
2009,05,23,01,05,13.40
2009,05,23,01,06,13.40
2009,05,23,01,07,13.40
2009,05,23,01,08,13.40
2009,05,23,01,09,13.30
2009,05,23,01,10,13.40
2009,05,23,01,11,13.40
2009,05,23,01,12,13.40
2009,05,23,01,13,13.40
2009,05,23,01,14,13.30
2009,05,23,01,15,13.30
2009,05,23,01,16,13.30
2009,05,23,01,17,13.30
2009,05,23,01,18,13.30
2009,05,23,01,19,13.30
2009,05,23,01,20,13.30
2009,05,23,01,21,13.30
2009,05,23,01,22,13.30
2009,05,23,01,23,13.30
2009,05,23,01,24,13.30
2009,05,23,01,25,13.30
2009,05,23,01,26,13.20
2009,05,23,01,27,13.20
2009,05,23,01,28,13.20
2009,05,23,01,29,13.20
2009,05,23,01,30,13.20
2009,05,23,01,31,13.20
2009,05,23,01,32,13.10
2009,05,23,01,33,13.10
2009,05,23,01,34,13.10
2009,05,23,01,35,13.00
2009,05,23,01,36,13.00
2009,05,23,01,37,13.00
2009,05,23,01,38,13.00
2009,05,23,01,39,12.90
2009,05,23,01,40,12.90
2009,05,23,01,41,12.90
2009,05,23,01,42,12.90
2009,05,23,01,43,12.90
2009,05,23,01,44,12.90
2009,05,23,01,45,12.80
2009,05,23,01,46,12.80
2009,05,23,01,47,12.80
2009,05,23,01,48,12.80
2009,05,23,01,49,12.80
2009,05,23,01,50,12.80
2009,05,23,01,51,12.80
2009,05,23,01,52,12.80
2009,05,23,01,53,12.80
2009,05,23,01,54,12.80
2009,05,23,01,55,12.80
2009,05,23,01,56,12.80
2009,05,23,01,57,12.80
2009,05,23,01,58,12.80
2009,05,23,01,59,12.80
2009,05,23,02,00,12.80
2009,05,23,02,01,12.80
2009,05,23,02,02,12.70
2009,05,23,02,03,12.70
2009,05,23,02,04,12.70
2009,05,23,02,05,12.70
2009,05,23,02,06,12.70
2009,05,23,02,07,12.70
2009,05,23,02,08,12.70
2009,05,23,02,09,12.70
2009,05,23,02,10,12.70
2009,05,23,02,11,12.70
2009,05,23,02,12,12.70
2009,05,23,02,13,12.70
2009,05,23,02,14,12.70
2009,05,23,02,15,12.70
2009,05,23,02,16,12.70
2009,05,23,02,17,12.70
2009,05,23,02,18,12.70
2009,05,23,02,19,12.70
2009,05,23,02,20,12.70
2009,05,23,02,21,12.70
2009,05,23,02,22,12.70
2009,05,23,02,23,12.70
2009,05,23,02,24,12.70
2009,05,23,02,25,12.70
2009,05,23,02,26,12.70
2009,05,23,02,27,12.70
2009,05,23,02,28,12.70
2009,05,23,02,29,12.70
2009,05,23,02,30,12.70
2009,05,23,02,31,12.70
2009,05,23,02,32,12.70
2009,05,23,02,33,12.70
2009,05,23,02,34,12.70
2009,05,23,02,35,12.70
2009,05,23,02,36,12.70
2009,05,23,02,37,12.70
2009,05,23,02,38,12.70
2009,05,23,02,39,12.70
2009,05,23,02,40,12.70
2009,05,23,02,41,12.70
2009,05,23,02,42,12.70
2009,05,23,02,43,12.70
2009,05,23,02,44,12.70
2009,05,23,02,45,12.70
2009,05,23,02,46,12.60
2009,05,23,02,47,12.70
2009,05,23,02,48,12.70
2009,05,23,02,49,12.60
2009,05,23,02,50,12.60
2009,05,23,02,51,12.60
2009,05,23,02,52,12.60
2009,05,23,02,53,12.60
2009,05,23,02,54,12.60
2009,05,23,02,55,12.60
2009,05,23,02,56,12.60
2009,05,23,02,57,12.60
2009,05,23,02,58,12.50
2009,05,23,02,59,12.50
2009,05,23,03,00,12.50
2009,05,23,03,01,12.50
2009,05,23,03,02,12.40
2009,05,23,03,03,12.40
2009,05,23,03,04,12.40
2009,05,23,03,05,12.40
2009,05,23,03,06,12.40
2009,05,23,03,07,12.30
2009,05,23,03,08,12.30
2009,05,23,03,09,12.30
2009,05,23,03,10,12.30
2009,05,23,03,11,12.20
2009,05,23,03,12,12.20
2009,05,23,03,13,12.20
2009,05,23,03,14,12.20
2009,05,23,03,15,12.20
2009,05,23,03,16,12.20
2009,05,23,03,17,12.20
2009,05,23,03,18,12.20
2009,05,23,03,19,12.20
2009,05,23,03,20,12.20
2009,05,23,03,21,12.20
2009,05,23,03,22,12.20
2009,05,23,03,23,12.20
2009,05,23,03,24,12.10
2009,05,23,03,25,12.10
2009,05,23,03,26,12.10
2009,05,23,03,27,12.10
2009,05,23,03,28,12.10
2009,05,23,03,29,12.10
2009,05,23,03,30,12.00
2009,05,23,03,31,12.00
2009,05,23,03,32,12.00
2009,05,23,03,33,12.00
2009,05,23,03,34,12.00
2009,05,23,03,35,12.00
2009,05,23,03,36,12.00
2009,05,23,03,37,12.00
2009,05,23,03,38,12.00
2009,05,23,03,39,12.00
2009,05,23,03,40,12.00
2009,05,23,03,41,12.00
2009,05,23,03,42,12.00
2009,05,23,03,43,11.90
2009,05,23,03,44,11.90
2009,05,23,03,45,11.90
2009,05,23,03,46,11.90
2009,05,23,03,47,11.90
2009,05,23,03,48,11.90
2009,05,23,03,49,11.90
2009,05,23,03,50,11.90
2009,05,23,03,51,11.90
2009,05,23,03,52,11.90
2009,05,23,03,53,11.90
2009,05,23,03,54,11.90
2009,05,23,03,55,11.90
2009,05,23,03,56,11.90
2009,05,23,03,57,11.90
2009,05,23,03,58,11.90
2009,05,23,03,59,11.90
2009,05,23,04,00,11.90
2009,05,23,04,01,11.90
2009,05,23,04,02,11.90
2009,05,23,04,03,11.90
2009,05,23,04,04,11.90
2009,05,23,04,05,11.90
2009,05,23,04,06,11.80
2009,05,23,04,07,11.80
2009,05,23,04,08,11.80
2009,05,23,04,09,11.80
2009,05,23,04,10,11.70
2009,05,23,04,11,11.70
2009,05,23,04,12,11.70
2009,05,23,04,13,11.60
2009,05,23,04,14,11.60
2009,05,23,04,15,11.60
2009,05,23,04,16,11.60
2009,05,23,04,17,11.60
2009,05,23,04,18,11.50
2009,05,23,04,19,11.50
2009,05,23,04,20,11.50
2009,05,23,04,21,11.40
2009,05,23,04,22,11.40
2009,05,23,04,23,11.40
2009,05,23,04,24,11.40
2009,05,23,04,25,11.40
2009,05,23,04,26,11.30
2009,05,23,04,27,11.30
2009,05,23,04,28,11.30
2009,05,23,04,29,11.30
2009,05,23,04,30,11.30
2009,05,23,04,31,11.30
2009,05,23,04,32,11.30
2009,05,23,04,33,11.30
2009,05,23,04,34,11.30
2009,05,23,04,35,11.30
2009,05,23,04,36,11.40
2009,05,23,04,37,11.40
2009,05,23,04,38,11.40
2009,05,23,04,39,11.40
2009,05,23,04,40,11.40
2009,05,23,04,41,11.40
2009,05,23,04,42,11.40
2009,05,23,04,43,11.50
2009,05,23,04,44,11.50
2009,05,23,04,45,11.50
2009,05,23,04,46,11.50
2009,05,23,04,47,11.60
2009,05,23,04,48,11.60
2009,05,23,04,49,11.60
2009,05,23,04,50,11.60
2009,05,23,04,51,11.70
2009,05,23,04,52,11.60
2009,05,23,04,53,11.60
2009,05,23,04,54,11.60
2009,05,23,04,55,11.60
2009,05,23,04,56,11.60
2009,05,23,04,57,11.60
2009,05,23,04,58,11.50
2009,05,23,04,59,11.50
2009,05,23,05,00,11.40
2009,05,23,05,01,11.40
2009,05,23,05,02,11.40
2009,05,23,05,03,11.40
2009,05,23,05,04,11.30
2009,05,23,05,05,11.30
2009,05,23,05,06,11.30
2009,05,23,05,07,11.30
2009,05,23,05,08,11.30
2009,05,23,05,09,11.30
2009,05,23,05,10,11.30
2009,05,23,05,11,11.30
2009,05,23,05,12,11.20
2009,05,23,05,13,11.20
2009,05,23,05,14,11.20
2009,05,23,05,15,11.20
2009,05,23,05,16,11.20
2009,05,23,05,17,11.20
2009,05,23,05,18,11.20
2009,05,23,05,19,11.20
2009,05,23,05,20,11.20
2009,05,23,05,21,11.20
2009,05,23,05,22,11.20
2009,05,23,05,23,11.20
2009,05,23,05,24,11.20
2009,05,23,05,25,11.20
2009,05,23,05,26,11.20
2009,05,23,05,27,11.30
2009,05,23,05,28,11.30
2009,05,23,05,29,11.30
2009,05,23,05,30,11.30
2009,05,23,05,31,11.30
2009,05,23,05,32,11.30
2009,05,23,05,33,11.40
2009,05,23,05,34,11.40
2009,05,23,05,35,11.40
2009,05,23,05,36,11.40
2009,05,23,05,37,11.30
2009,05,23,05,38,11.30
2009,05,23,05,39,11.30
2009,05,23,05,40,11.30
2009,05,23,05,41,11.30
2009,05,23,05,42,11.30
2009,05,23,05,43,11.30
2009,05,23,05,44,11.30
2009,05,23,05,45,11.30
2009,05,23,05,46,11.20
2009,05,23,05,47,11.20
2009,05,23,05,48,11.20
2009,05,23,05,49,11.20
2009,05,23,05,50,11.20
2009,05,23,05,51,11.20
2009,05,23,05,52,11.20
2009,05,23,05,53,11.20
2009,05,23,05,54,11.20
2009,05,23,05,55,11.20
2009,05,23,05,56,11.20
2009,05,23,05,57,11.20
2009,05,23,05,58,11.20
2009,05,23,05,59,11.20
2009,05,23,06,00,11.20
2009,05,23,06,01,11.20
2009,05,23,06,02,11.20
2009,05,23,06,03,11.20
2009,05,23,06,04,11.20
2009,05,23,06,05,11.20
2009,05,23,06,06,11.20
2009,05,23,06,07,11.20
2009,05,23,06,08,11.20
2009,05,23,06,09,11.20
2009,05,23,06,10,11.30
2009,05,23,06,11,11.30
2009,05,23,06,12,11.30
2009,05,23,06,13,11.30
2009,05,23,06,14,11.30
2009,05,23,06,15,11.30
2009,05,23,06,16,11.30
2009,05,23,06,17,11.30
2009,05,23,06,18,11.30
2009,05,23,06,19,11.30
2009,05,23,06,20,11.30
2009,05,23,06,21,11.30
2009,05,23,06,22,11.30
2009,05,23,06,23,11.30
2009,05,23,06,24,11.40
2009,05,23,06,25,11.40
2009,05,23,06,26,11.40
2009,05,23,06,27,11.40
2009,05,23,06,28,11.40
2009,05,23,06,29,11.40
2009,05,23,06,30,11.50
2009,05,23,06,31,11.50
2009,05,23,06,32,11.50
2009,05,23,06,33,11.50
2009,05,23,06,34,11.50
2009,05,23,06,35,11.60
2009,05,23,06,36,11.60
2009,05,23,06,37,11.60
2009,05,23,06,38,11.60
2009,05,23,06,39,11.60
2009,05,23,06,40,11.60
2009,05,23,06,41,11.70
2009,05,23,06,42,11.70
2009,05,23,06,43,11.70
2009,05,23,06,44,11.70
2009,05,23,06,45,11.70
2009,05,23,06,46,11.70
2009,05,23,06,47,11.70
2009,05,23,06,48,11.70
2009,05,23,06,49,11.70
2009,05,23,06,50,11.70
2009,05,23,06,51,11.80
2009,05,23,06,52,11.80
2009,05,23,06,53,11.80
2009,05,23,06,54,11.80
2009,05,23,06,55,11.80
2009,05,23,06,56,11.80
2009,05,23,06,57,11.80
2009,05,23,06,58,11.80
2009,05,23,06,59,11.80
2009,05,23,07,00,11.90
2009,05,23,07,01,11.90
2009,05,23,07,02,11.90
2009,05,23,07,03,11.90
2009,05,23,07,04,11.90
2009,05,23,07,05,11.90
2009,05,23,07,06,11.90
2009,05,23,07,07,11.90
2009,05,23,07,08,12.00
2009,05,23,07,09,12.00
2009,05,23,07,10,12.00
2009,05,23,07,11,12.10
2009,05,23,07,12,12.10
2009,05,23,07,13,12.10
2009,05,23,07,14,12.10
2009,05,23,07,15,12.10
2009,05,23,07,16,12.10
2009,05,23,07,17,12.10
2009,05,23,07,18,12.10
2009,05,23,07,19,12.10
2009,05,23,07,20,12.20
2009,05,23,07,21,12.20
2009,05,23,07,22,12.20
2009,05,23,07,23,12.20
2009,05,23,07,24,12.20
2009,05,23,07,25,12.20
2009,05,23,07,26,12.20
2009,05,23,07,27,12.30
2009,05,23,07,28,12.30
2009,05,23,07,29,12.30
2009,05,23,07,30,12.30
2009,05,23,07,31,12.30
2009,05,23,07,32,12.30
2009,05,23,07,33,12.30
2009,05,23,07,34,12.40
2009,05,23,07,35,12.40
2009,05,23,07,36,12.40
2009,05,23,07,37,12.40
2009,05,23,07,38,12.40
2009,05,23,07,39,12.50
2009,05,23,07,40,12.50
2009,05,23,07,41,12.60
2009,05,23,07,42,12.60
2009,05,23,07,43,12.60
2009,05,23,07,44,12.60
2009,05,23,07,45,12.60
2009,05,23,07,46,12.70
2009,05,23,07,47,12.70
2009,05,23,07,48,12.70
2009,05,23,07,49,12.80
2009,05,23,07,50,12.80
2009,05,23,07,51,12.80
2009,05,23,07,52,12.80
2009,05,23,07,53,12.80
2009,05,23,07,54,12.80
2009,05,23,07,55,12.80
2009,05,23,07,56,12.80
2009,05,23,07,57,12.90
2009,05,23,07,58,12.90
2009,05,23,07,59,12.90
2009,05,23,08,00,12.90
2009,05,23,08,01,12.90
2009,05,23,08,02,12.90
2009,05,23,08,03,12.90
2009,05,23,08,04,12.90
2009,05,23,08,05,13.00
2009,05,23,08,06,13.00
2009,05,23,08,07,13.00
2009,05,23,08,08,13.00
2009,05,23,08,09,13.00
2009,05,23,08,10,13.10
2009,05,23,08,11,13.10
2009,05,23,08,12,13.20
2009,05,23,08,13,13.30
2009,05,23,08,14,13.40
2009,05,23,08,15,13.40
2009,05,23,08,16,13.50
2009,05,23,08,17,13.60
2009,05,23,08,18,13.60
2009,05,23,08,19,13.60
2009,05,23,08,20,13.70
2009,05,23,08,21,13.70
2009,05,23,08,22,13.70
2009,05,23,08,23,13.70
2009,05,23,08,24,13.70
2009,05,23,08,25,13.70
2009,05,23,08,26,13.70
2009,05,23,08,27,13.80
2009,05,23,08,28,13.80
2009,05,23,08,29,13.80
2009,05,23,08,30,13.90
2009,05,23,08,31,13.90
2009,05,23,08,32,13.80
2009,05,23,08,33,13.90
2009,05,23,08,34,13.90
2009,05,23,08,35,13.90
2009,05,23,08,36,14.00
2009,05,23,08,37,14.00
2009,05,23,08,38,14.00
2009,05,23,08,39,14.10
2009,05,23,08,40,14.10
2009,05,23,08,41,14.10
2009,05,23,08,42,14.10
2009,05,23,08,43,14.10
2009,05,23,08,44,14.20
2009,05,23,08,45,14.20
2009,05,23,08,46,14.20
2009,05,23,08,47,14.20
2009,05,23,08,48,14.20
2009,05,23,08,49,14.20
2009,05,23,08,50,14.20
2009,05,23,08,51,14.20
2009,05,23,08,52,14.20
2009,05,23,08,53,14.30
2009,05,23,08,54,14.30
2009,05,23,08,55,14.40
2009,05,23,08,56,14.50
2009,05,23,08,57,14.60
2009,05,23,08,58,14.60
2009,05,23,08,59,14.70
2009,05,23,09,00,14.70
2009,05,23,09,01,14.70
2009,05,23,09,02,14.80
2009,05,23,09,03,14.80
2009,05,23,09,04,14.80
2009,05,23,09,05,14.90
2009,05,23,09,06,15.00
2009,05,23,09,07,15.00
2009,05,23,09,08,15.00
2009,05,23,09,09,15.00
2009,05,23,09,10,15.00
2009,05,23,09,11,15.00
2009,05,23,09,12,15.00
2009,05,23,09,13,15.00
2009,05,23,09,14,15.00
2009,05,23,09,15,15.10
2009,05,23,09,16,15.10
2009,05,23,09,17,15.20
2009,05,23,09,18,15.20
2009,05,23,09,19,15.20
2009,05,23,09,20,15.20
2009,05,23,09,21,15.10
2009,05,23,09,22,15.00
2009,05,23,09,23,15.00
2009,05,23,09,24,15.00
2009,05,23,09,25,15.00
2009,05,23,09,26,15.10
2009,05,23,09,27,15.10
2009,05,23,09,28,15.20
2009,05,23,09,29,15.20
2009,05,23,09,30,15.20
2009,05,23,09,31,15.20
2009,05,23,09,32,15.20
2009,05,23,09,33,15.30
2009,05,23,09,34,15.40
2009,05,23,09,35,15.40
2009,05,23,09,36,15.50
2009,05,23,09,37,15.50
2009,05,23,09,38,15.60
2009,05,23,09,39,15.70
2009,05,23,09,40,15.70
2009,05,23,09,41,15.70
2009,05,23,09,42,15.70
2009,05,23,09,43,15.70
2009,05,23,09,44,15.70
2009,05,23,09,45,15.80
2009,05,23,09,46,15.80
2009,05,23,09,47,15.80
2009,05,23,09,48,15.90
2009,05,23,09,49,15.90
2009,05,23,09,50,16.00
2009,05,23,09,51,16.00
2009,05,23,09,52,16.00
2009,05,23,09,53,16.00
2009,05,23,09,54,15.90
2009,05,23,09,55,15.90
2009,05,23,09,56,15.90
2009,05,23,09,57,15.90
2009,05,23,09,58,15.90
2009,05,23,09,59,15.90
2009,05,23,10,00,15.90
2009,05,23,10,01,15.90
2009,05,23,10,02,15.90
2009,05,23,10,03,16.00
2009,05,23,10,04,16.00
2009,05,23,10,05,16.10
2009,05,23,10,06,16.10
2009,05,23,10,07,16.00
2009,05,23,10,08,16.00
2009,05,23,10,09,16.00
2009,05,23,10,10,16.00
2009,05,23,10,11,16.00
2009,05,23,10,12,16.10
2009,05,23,10,13,16.10
2009,05,23,10,14,16.20
2009,05,23,10,15,16.20
2009,05,23,10,16,16.20
2009,05,23,10,17,16.20
2009,05,23,10,18,16.20
2009,05,23,10,19,16.20
2009,05,23,10,20,16.30
2009,05,23,10,21,16.40
2009,05,23,10,22,16.50
2009,05,23,10,23,16.50
2009,05,23,10,24,16.60
2009,05,23,10,25,16.60
2009,05,23,10,26,16.60
2009,05,23,10,27,16.70
2009,05,23,10,28,16.70
2009,05,23,10,29,16.80
2009,05,23,10,30,16.90
2009,05,23,10,31,17.00
2009,05,23,10,32,17.00
2009,05,23,10,33,16.90
2009,05,23,10,34,16.90
2009,05,23,10,35,16.80
2009,05,23,10,36,16.80
2009,05,23,10,37,16.70
2009,05,23,10,38,16.60
2009,05,23,10,39,16.60
2009,05,23,10,40,16.60
2009,05,23,10,41,16.60
2009,05,23,10,42,16.70
2009,05,23,10,43,16.80
2009,05,23,10,44,16.80
2009,05,23,10,45,16.90
2009,05,23,10,46,16.90
2009,05,23,10,47,16.90
2009,05,23,10,48,16.80
2009,05,23,10,49,16.70
2009,05,23,10,50,16.70
2009,05,23,10,51,16.70
2009,05,23,10,52,16.70
2009,05,23,10,53,16.70
2009,05,23,10,54,16.70
2009,05,23,10,55,16.70
2009,05,23,10,56,16.80
2009,05,23,10,57,16.80
2009,05,23,10,58,16.80
2009,05,23,10,59,16.70
2009,05,23,11,00,16.70
2009,05,23,11,01,16.70
2009,05,23,11,02,16.70
2009,05,23,11,03,16.80
2009,05,23,11,04,16.80
2009,05,23,11,05,16.90
2009,05,23,11,06,16.90
2009,05,23,11,07,17.00
2009,05,23,11,08,16.90
2009,05,23,11,09,16.90
2009,05,23,11,10,16.90
2009,05,23,11,11,16.90
2009,05,23,11,12,17.00
2009,05,23,11,13,17.00
2009,05,23,11,14,17.00
2009,05,23,11,15,17.10
2009,05,23,11,16,17.10
2009,05,23,11,17,17.10
2009,05,23,11,18,17.10
2009,05,23,11,19,17.10
2009,05,23,11,20,17.20
2009,05,23,11,21,17.30
2009,05,23,11,22,17.40
2009,05,23,11,23,17.40
2009,05,23,11,24,17.40
2009,05,23,11,25,17.40
2009,05,23,11,26,17.50
2009,05,23,11,27,17.50
2009,05,23,11,28,17.60
2009,05,23,11,29,17.50
2009,05,23,11,30,17.50
2009,05,23,11,31,17.60
2009,05,23,11,32,17.70
2009,05,23,11,33,17.80
2009,05,23,11,34,17.70
2009,05,23,11,35,17.70
2009,05,23,11,36,17.70
2009,05,23,11,37,17.70
2009,05,23,11,38,17.70
2009,05,23,11,39,17.70
2009,05,23,11,40,17.70
2009,05,23,11,41,17.60
2009,05,23,11,42,17.60
2009,05,23,11,43,17.60
2009,05,23,11,44,17.60
2009,05,23,11,45,17.70
2009,05,23,11,46,17.70
2009,05,23,11,47,17.80
2009,05,23,11,48,17.90
2009,05,23,11,49,18.00
2009,05,23,11,50,18.20
2009,05,23,11,51,18.30
2009,05,23,11,52,18.30
2009,05,23,11,53,18.40
2009,05,23,11,54,18.40
2009,05,23,11,55,18.30
2009,05,23,11,56,18.30
2009,05,23,11,57,18.40
2009,05,23,11,58,18.50
2009,05,23,11,59,18.60
2009,05,23,12,00,18.60
2009,05,23,12,01,18.50
2009,05,23,12,02,18.50
2009,05,23,12,03,18.50
2009,05,23,12,04,18.40
2009,05,23,12,05,18.30
2009,05,23,12,06,18.30
2009,05,23,12,07,18.20
2009,05,23,12,08,18.20
2009,05,23,12,09,18.20
2009,05,23,12,10,18.20
2009,05,23,12,11,18.10
2009,05,23,12,12,18.10
2009,05,23,12,13,18.20
2009,05,23,12,14,18.20
2009,05,23,12,15,18.20
2009,05,23,12,16,18.30
2009,05,23,12,17,18.40
2009,05,23,12,18,18.40
2009,05,23,12,19,18.30
2009,05,23,12,20,18.40
2009,05,23,12,21,18.40
2009,05,23,12,22,18.50
2009,05,23,12,23,18.50
2009,05,23,12,24,18.60
2009,05,23,12,25,18.50
2009,05,23,12,26,18.50
2009,05,23,12,27,18.40
2009,05,23,12,28,18.40
2009,05,23,12,29,18.40
2009,05,23,12,30,18.50
2009,05,23,12,31,18.60
2009,05,23,12,32,18.70
2009,05,23,12,33,18.60
2009,05,23,12,34,18.60
2009,05,23,12,35,18.70
2009,05,23,12,36,18.70
2009,05,23,12,37,18.50
2009,05,23,12,38,18.40
2009,05,23,12,39,18.30
2009,05,23,12,40,18.20
2009,05,23,12,41,18.20
2009,05,23,12,42,18.20
2009,05,23,12,43,18.20
2009,05,23,12,44,18.30
2009,05,23,12,45,18.30
2009,05,23,12,46,18.30
2009,05,23,12,47,18.40
2009,05,23,12,48,18.50
2009,05,23,12,49,18.50
2009,05,23,12,50,18.40
2009,05,23,12,51,18.40
2009,05,23,12,52,18.40
2009,05,23,12,53,18.50
2009,05,23,12,54,18.50
2009,05,23,12,55,18.60
2009,05,23,12,56,18.70
2009,05,23,12,57,18.60
2009,05,23,12,58,18.60
2009,05,23,12,59,18.70
2009,05,23,13,00,18.80
2009,05,23,13,01,18.80
2009,05,23,13,02,18.90
2009,05,23,13,03,18.80
2009,05,23,13,04,18.80
2009,05,23,13,05,18.90
2009,05,23,13,06,18.90
2009,05,23,13,07,18.90
2009,05,23,13,08,18.90
2009,05,23,13,09,18.90
2009,05,23,13,10,19.00
2009,05,23,13,11,18.90
2009,05,23,13,12,18.90
2009,05,23,13,13,18.90
2009,05,23,13,14,18.90
2009,05,23,13,15,18.90
2009,05,23,13,16,18.90
2009,05,23,13,17,18.90
2009,05,23,13,18,19.00
2009,05,23,13,19,19.00
2009,05,23,13,20,19.10
2009,05,23,13,21,19.20
2009,05,23,13,22,19.30
2009,05,23,13,23,19.30
2009,05,23,13,24,19.30
2009,05,23,13,25,19.30
2009,05,23,13,26,19.30
2009,05,23,13,27,19.30
2009,05,23,13,28,19.40
2009,05,23,13,29,19.50
2009,05,23,13,30,19.50
2009,05,23,13,31,19.40
2009,05,23,13,32,19.40
2009,05,23,13,33,19.40
2009,05,23,13,34,19.30
2009,05,23,13,35,19.30
2009,05,23,13,36,19.30
2009,05,23,13,37,19.30
2009,05,23,13,38,19.20
2009,05,23,13,39,19.20
2009,05,23,13,40,19.20
2009,05,23,13,41,19.30
2009,05,23,13,42,19.30
2009,05,23,13,43,19.30
2009,05,23,13,44,19.30
2009,05,23,13,45,19.30
2009,05,23,13,46,19.40
2009,05,23,13,47,19.40
2009,05,23,13,48,19.40
2009,05,23,13,49,19.40
2009,05,23,13,50,19.50
2009,05,23,13,51,19.60
2009,05,23,13,52,19.70
2009,05,23,13,53,19.70
2009,05,23,13,54,19.70
2009,05,23,13,55,19.70
2009,05,23,13,56,19.70
2009,05,23,13,57,19.60
2009,05,23,13,58,19.60
2009,05,23,13,59,19.60
2009,05,23,14,00,19.60
2009,05,23,14,01,19.60
2009,05,23,14,02,19.60
2009,05,23,14,03,19.60
2009,05,23,14,04,19.70
2009,05,23,14,05,19.70
2009,05,23,14,06,19.80
2009,05,23,14,07,19.90
2009,05,23,14,08,19.90
2009,05,23,14,09,20.00
2009,05,23,14,10,20.10
2009,05,23,14,11,20.20
2009,05,23,14,12,20.30
2009,05,23,14,13,20.50
2009,05,23,14,14,20.60
2009,05,23,14,15,20.70
2009,05,23,14,16,20.80
2009,05,23,14,17,20.80
2009,05,23,14,18,20.70
2009,05,23,14,19,20.60
2009,05,23,14,20,20.40
2009,05,23,14,21,20.30
2009,05,23,14,22,20.20
2009,05,23,14,23,20.20
2009,05,23,14,24,20.20
2009,05,23,14,25,20.20
2009,05,23,14,26,20.20
2009,05,23,14,27,20.30
2009,05,23,14,28,20.40
2009,05,23,14,29,20.60
2009,05,23,14,30,20.80
2009,05,23,14,31,21.00
2009,05,23,14,32,21.10
2009,05,23,14,33,21.30
2009,05,23,14,34,21.30
2009,05,23,14,35,21.20
2009,05,23,14,36,21.10
2009,05,23,14,37,21.00
2009,05,23,14,38,20.90
2009,05,23,14,39,20.80
2009,05,23,14,40,20.80
2009,05,23,14,41,20.90
2009,05,23,14,42,20.80
2009,05,23,14,43,20.80
2009,05,23,14,44,20.90
2009,05,23,14,45,20.90
2009,05,23,14,46,20.90
2009,05,23,14,47,21.00
2009,05,23,14,48,21.10
2009,05,23,14,49,21.10
2009,05,23,14,50,21.20
2009,05,23,14,51,21.20
2009,05,23,14,52,21.20
2009,05,23,14,53,21.20
2009,05,23,14,54,21.20
2009,05,23,14,55,21.10
2009,05,23,14,56,21.10
2009,05,23,14,57,21.00
2009,05,23,14,58,20.90
2009,05,23,14,59,21.00
2009,05,23,15,00,21.10
2009,05,23,15,01,21.10
2009,05,23,15,02,21.20
2009,05,23,15,03,21.40
2009,05,23,15,04,21.50
2009,05,23,15,05,21.60
2009,05,23,15,06,21.60
2009,05,23,15,07,21.60
2009,05,23,15,08,21.70
2009,05,23,15,09,21.70
2009,05,23,15,10,21.80
2009,05,23,15,11,21.80
2009,05,23,15,12,21.90
2009,05,23,15,13,22.00
2009,05,23,15,14,22.10
2009,05,23,15,15,22.00
2009,05,23,15,16,22.00
2009,05,23,15,17,22.00
2009,05,23,15,18,22.00
2009,05,23,15,19,22.00
2009,05,23,15,20,22.10
2009,05,23,15,21,22.20
2009,05,23,15,22,22.20
2009,05,23,15,23,22.10
2009,05,23,15,24,22.00
2009,05,23,15,25,21.90
2009,05,23,15,26,21.80
2009,05,23,15,27,21.90
2009,05,23,15,28,22.00
2009,05,23,15,29,22.10
2009,05,23,15,30,22.10
2009,05,23,15,31,22.00
2009,05,23,15,32,22.10
2009,05,23,15,33,22.20
2009,05,23,15,34,22.20
2009,05,23,15,35,22.20
2009,05,23,15,36,22.20
2009,05,23,15,37,22.30
2009,05,23,15,38,22.40
2009,05,23,15,39,22.40
2009,05,23,15,40,22.40
2009,05,23,15,41,22.50
2009,05,23,15,42,22.60
2009,05,23,15,43,22.60
2009,05,23,15,44,22.80
2009,05,23,15,45,22.80
2009,05,23,15,46,22.80
2009,05,23,15,47,22.90
2009,05,23,15,48,22.90
2009,05,23,15,49,22.90
2009,05,23,15,50,22.80
2009,05,23,15,51,22.60
2009,05,23,15,52,22.40
2009,05,23,15,53,22.30
2009,05,23,15,54,22.20
2009,05,23,15,55,22.10
2009,05,23,15,56,22.10
2009,05,23,15,57,22.10
2009,05,23,15,58,22.10
2009,05,23,15,59,22.20
2009,05,23,16,00,22.30
2009,05,23,16,01,22.40
2009,05,23,16,02,22.40
2009,05,23,16,03,22.40
2009,05,23,16,04,22.40
2009,05,23,16,05,22.40
2009,05,23,16,06,22.40
2009,05,23,16,07,22.30
2009,05,23,16,08,22.30
2009,05,23,16,09,22.20
2009,05,23,16,10,22.10
2009,05,23,16,11,22.10
2009,05,23,16,12,22.20
2009,05,23,16,13,22.20
2009,05,23,16,14,22.20
2009,05,23,16,15,22.20
2009,05,23,16,16,22.30
2009,05,23,16,17,22.30
2009,05,23,16,18,22.30
2009,05,23,16,19,22.30
2009,05,23,16,20,22.30
2009,05,23,16,21,22.20
2009,05,23,16,22,22.20
2009,05,23,16,23,22.20
2009,05,23,16,24,22.30
2009,05,23,16,25,22.30
2009,05,23,16,26,22.30
2009,05,23,16,27,22.40
2009,05,23,16,28,22.40
2009,05,23,16,29,22.30
2009,05,23,16,30,22.20
2009,05,23,16,31,22.20
2009,05,23,16,32,22.20
2009,05,23,16,33,22.20
2009,05,23,16,34,22.30
2009,05,23,16,35,22.30
2009,05,23,16,36,22.40
2009,05,23,16,37,22.50
2009,05,23,16,38,22.60
2009,05,23,16,39,22.60
2009,05,23,16,40,22.50
2009,05,23,16,41,22.50
2009,05,23,16,42,22.40
2009,05,23,16,43,22.50
2009,05,23,16,44,22.60
2009,05,23,16,45,22.70
2009,05,23,16,46,22.70
2009,05,23,16,47,22.70
2009,05,23,16,48,22.60
2009,05,23,16,49,22.50
2009,05,23,16,50,22.40
2009,05,23,16,51,22.30
2009,05,23,16,52,22.20
2009,05,23,16,53,22.10
2009,05,23,16,54,22.10
2009,05,23,16,55,22.10
2009,05,23,16,56,22.10
2009,05,23,16,57,22.10
2009,05,23,16,58,22.10
2009,05,23,16,59,22.10
2009,05,23,17,00,22.10
2009,05,23,17,01,22.20
2009,05,23,17,02,22.20
2009,05,23,17,03,22.20
2009,05,23,17,04,22.30
2009,05,23,17,05,22.40
2009,05,23,17,06,22.50
2009,05,23,17,07,22.50
2009,05,23,17,08,22.40
2009,05,23,17,09,22.40
2009,05,23,17,10,22.40
2009,05,23,17,11,22.30
2009,05,23,17,12,22.30
2009,05,23,17,13,22.20
2009,05,23,17,14,22.20
2009,05,23,17,15,22.30
2009,05,23,17,16,22.20
2009,05,23,17,17,22.10
2009,05,23,17,18,22.10
2009,05,23,17,19,22.10